| time (UTC) | temp C | wind direction | speed KPH | gust KPH | rain 1hr cm | rain 24hr cm | rain mn cm | humidity % | barometer mb |
| 20260503051455 | 8 | 184 | 9.7 | 12.9 | 0.00 | 0.00 | 0.00 | 79 | 1010.5 |
| 20260503050956 | 7 | 178 | 9.7 | 11.3 | 0.00 | 0.00 | 0.00 | 78 | 1010.5 |
| 20260503050455 | 7 | 184 | 6.4 | 8.0 | 0.00 | 0.00 | 0.00 | 76 | 1010.5 |
| 20260503045955 | 7 | 217 | 6.4 | 9.7 | 0.00 | 0.00 | 0.00 | 75 | 1010.8 |
| 20260503045456 | 7 | 204 | 6.4 | 8.0 | 0.00 | 0.00 | 0.00 | 77 | 1010.8 |
| 20260503044955 | 7 | 167 | 6.4 | 9.7 | 0.00 | 0.00 | 0.00 | 79 | 1010.8 |
| 20260503044456 | 7 | 189 | 8.0 | 9.7 | 0.00 | 0.00 | 0.00 | 80 | 1010.8 |
| 20260503043955 | 7 | 181 | 6.4 | 9.7 | 0.00 | 0.00 | 0.00 | 79 | 1010.8 |
| 20260503043455 | 8 | 186 | 8.0 | 9.7 | 0.00 | 0.00 | 0.00 | 80 | 1011.2 |
| 20260503042955 | 8 | 187 | 9.7 | 12.9 | 0.00 | 0.00 | 0.00 | 74 | 1011.2 |
| 20260503042455 | 8 | 177 | 8.0 | 11.3 | 0.00 | 0.00 | 0.00 | 77 | 1011.2 |
| 20260503041955 | 8 | 188 | 8.0 | 12.9 | 0.00 | 0.00 | 0.00 | 73 | 1011.2 |
| 20260503041455 | 8 | 169 | 8.0 | 12.9 | 0.00 | 0.00 | 0.00 | 75 | 1011.2 |
| 20260503040955 | 8 | 187 | 9.7 | 11.3 | 0.00 | 0.00 | 0.00 | 73 | 1011.2 |
| 20260503040455 | 8 | 194 | 8.0 | 11.3 | 0.00 | 0.00 | 0.00 | 73 | 1011.2 |
| 20260503035955 | 8 | 187 | 11.3 | 11.3 | 0.00 | 0.00 | 0.00 | 73 | 1011.2 |
| 20260503035455 | 8 | 189 | 9.7 | 11.3 | 0.00 | 0.00 | 0.00 | 74 | 1011.2 |
| 20260503034955 | 7 | 166 | 9.7 | 11.3 | 0.00 | 0.00 | 0.00 | 75 | 1011.5 |
| 20260503034456 | 7 | 176 | 9.7 | 11.3 | 0.00 | 0.00 | 0.00 | 77 | 1011.5 |
| 20260503033955 | 7 | 187 | 9.7 | 11.3 | 0.00 | 0.00 | 0.00 | 81 | 1011.5 |
| 20260503033455 | 8 | 173 | 9.7 | 11.3 | 0.00 | 0.00 | 0.00 | 81 | 1011.5 |
| 20260503032956 | 8 | 175 | 9.7 | 11.3 | 0.00 | 0.00 | 0.00 | 81 | 1011.5 |
| 20260503032455 | 7 | 189 | 9.7 | 11.3 | 0.00 | 0.00 | 0.00 | 81 | 1011.9 |
| 20260503031956 | 8 | 174 | 4.8 | 8.0 | 0.00 | 0.00 | 0.00 | 80 | 1011.9 |
| 20260503031455 | 8 | 174 | 6.4 | 11.3 | 0.00 | 0.00 | 0.00 | 78 | 1011.9 |
| 20260503030955 | 8 | 188 | 9.7 | 11.3 | 0.00 | 0.00 | 0.00 | 75 | 1011.9 |
| 20260503030455 | 8 | 189 | 6.4 | 11.3 | 0.00 | 0.00 | 0.00 | 78 | 1011.9 |
| 20260503025955 | 8 | 176 | 9.7 | 11.3 | 0.00 | 0.00 | 0.00 | 79 | 1012.2 |
| 20260503025455 | 8 | 175 | 9.7 | 9.7 | 0.00 | 0.00 | 0.00 | 77 | 1012.2 |
| 20260503024956 | 8 | 172 | 9.7 | 9.7 | 0.00 | 0.00 | 0.00 | 78 | 1012.2 |
| 20260503024455 | 8 | 174 | 9.7 | 9.7 | 0.00 | 0.00 | 0.00 | 77 | 1012.2 |
| 20260503023955 | 8 | 170 | 6.4 | 8.0 | 0.00 | 0.00 | 0.00 | 80 | 1012.2 |
| 20260503023455 | 8 | 177 | 8.0 | 9.7 | 0.00 | 0.00 | 0.00 | 80 | 1012.2 |
| 20260503022955 | 9 | 182 | 6.4 | 9.7 | 0.00 | 0.00 | 0.00 | 80 | 1012.2 |
| 20260503022455 | 9 | 201 | 8.0 | 9.7 | 0.00 | 0.00 | 0.00 | 77 | 1012.2 |
| 20260503021955 | 9 | 183 | 8.0 | 9.7 | 0.00 | 0.00 | 0.00 | 78 | 1012.2 |
| 20260503021455 | 8 | 186 | 6.4 | 8.0 | 0.00 | 0.00 | 0.00 | 76 | 1012.2 |
| 20260503020955 | 9 | 211 | 6.4 | 6.4 | 0.00 | 0.00 | 0.00 | 79 | 1012.2 |
| 20260503020455 | 9 | 182 | 4.8 | 8.0 | 0.00 | 0.00 | 0.00 | 79 | 1012.5 |
| 20260503015955 | 9 | 180 | 6.4 | 8.0 | 0.00 | 0.00 | 0.00 | 75 | 1012.5 |
| 20260503015455 | 10 | 193 | 6.4 | 9.7 | 0.00 | 0.00 | 0.00 | 77 | 1012.5 |
| 20260503014955 | 10 | 187 | 8.0 | 9.7 | 0.00 | 0.00 | 0.00 | 74 | 1012.5 |
| 20260503014455 | 10 | 185 | 6.4 | 8.0 | 0.00 | 0.00 | 0.00 | 76 | 1012.5 |
| 20260503013956 | 9 | 178 | 6.4 | 8.0 | 0.00 | 0.00 | 0.00 | 76 | 1012.2 |
| 20260503013455 | 8 | 198 | 8.0 | 9.7 | 0.00 | 0.00 | 0.00 | 75 | 1012.5 |
| 20260503012955 | 9 | 162 | 4.8 | 4.8 | 0.00 | 0.00 | 0.00 | 79 | 1012.5 |
| 20260503012455 | 9 | 173 | 4.8 | 6.4 | 0.00 | 0.00 | 0.00 | 76 | 1012.5 |
| 20260503011956 | 10 | 171 | 6.4 | 9.7 | 0.00 | 0.00 | 0.00 | 74 | 1012.5 |
| 20260503011456 | 10 | 177 | 8.0 | 11.3 | 0.00 | 0.00 | 0.00 | 70 | 1012.5 |
| 20260503010955 | 10 | 181 | 9.7 | 11.3 | 0.00 | 0.00 | 0.00 | 66 | 1012.5 |
| 20260503010456 | 10 | 210 | 8.0 | 11.3 | 0.00 | 0.00 | 0.00 | 67 | 1012.5 |
| 20260503005955 | 10 | 209 | 9.7 | 12.9 | 0.00 | 0.00 | 0.00 | 68 | 1012.5 |
| 20260503005455 | 10 | 226 | 9.7 | 12.9 | 0.00 | 0.00 | 0.00 | 64 | 1012.5 |
| 20260503004956 | 11 | 231 | 11.3 | 12.9 | 0.00 | 0.00 | 0.00 | 64 | 1012.9 |
| 20260503004455 | 11 | 224 | 11.3 | 12.9 | 0.00 | 0.00 | 0.00 | 64 | 1012.9 |
| 20260503003956 | 11 | 235 | 12.9 | 14.5 | 0.00 | 0.00 | 0.00 | 62 | 1012.9 |
| 20260503003456 | 11 | 228 | 12.9 | 14.5 | 0.00 | 0.00 | 0.00 | 61 | 1012.9 |
| 20260503002955 | 11 | 235 | 14.5 | 16.1 | 0.00 | 0.00 | 0.00 | 59 | 1012.9 |
| 20260503002455 | 11 | 214 | 14.5 | 16.1 | 0.00 | 0.00 | 0.00 | 59 | 1012.9 |
| 20260503001955 | 12 | 226 | 12.9 | 17.7 | 0.00 | 0.00 | 0.00 | 57 | 1012.9 |
| 20260503001456 | 12 | 232 | 16.1 | 22.5 | 0.00 | 0.00 | 0.00 | 57 | 1012.9 |
| 20260503000955 | 12 | 241 | 20.9 | 24.1 | 0.00 | 0.00 | 0.00 | 55 | 1012.9 |
| 20260503000455 | 13 | 241 | 16.1 | 22.5 | 0.00 | 0.00 | 0.00 | 58 | 1013.2 |
| 20260502235955 | 13 | 238 | 17.7 | 20.9 | 0.00 | 0.00 | 0.00 | 50 | 1013.2 |
| 20260502235455 | 13 | 229 | 17.7 | 22.5 | 0.00 | 0.00 | 0.00 | 50 | 1013.2 |
| 20260502234958 | 13 | 241 | 17.7 | 25.7 | 0.00 | 0.00 | 0.00 | 55 | 1013.2 |
| 20260502234455 | 13 | 219 | 17.7 | 24.1 | 0.00 | 0.00 | 0.00 | 54 | 1013.2 |
| 20260502233956 | 13 | 232 | 16.1 | 25.7 | 0.00 | 0.00 | 0.00 | 53 | 1013.2 |
| 20260502233455 | 13 | 248 | 16.1 | 25.7 | 0.00 | 0.00 | 0.00 | 55 | 1013.2 |
| 20260502232956 | 13 | 245 | 17.7 | 24.1 | 0.00 | 0.00 | 0.00 | 54 | 1013.2 |
| 20260502232456 | 12 | 249 | 17.7 | 24.1 | 0.00 | 0.00 | 0.00 | 53 | 1013.2 |
| 20260502231955 | 13 | 235 | 19.3 | 25.7 | 0.00 | 0.00 | 0.00 | 52 | 1013.2 |
| 20260502231455 | 13 | 218 | 17.7 | 29.0 | 0.00 | 0.00 | 0.00 | 53 | 1013.2 |
| 20260502230955 | 13 | 236 | 24.1 | 29.0 | 0.00 | 0.00 | 0.00 | 51 | 1013.2 |
| 20260502230455 | 13 | 255 | 17.7 | 29.0 | 0.00 | 0.00 | 0.00 | 54 | 1013.2 |
| 20260502225955 | 13 | 246 | 12.9 | 22.5 | 0.00 | 0.00 | 0.00 | 52 | 1013.2 |
| 20260502225456 | 13 | 252 | 17.7 | 29.0 | 0.00 | 0.00 | 0.00 | 52 | 1013.2 |
| 20260502224955 | 14 | 243 | 20.9 | 29.0 | 0.00 | 0.00 | 0.00 | 47 | 1013.2 |
| 20260502224455 | 14 | 232 | 20.9 | 25.7 | 0.00 | 0.00 | 0.00 | 47 | 1013.2 |
| 20260502223956 | 13 | 250 | 17.7 | 25.7 | 0.00 | 0.00 | 0.00 | 49 | 1013.2 |
| 20260502223455 | 13 | 213 | 25.7 | 27.4 | 0.00 | 0.00 | 0.00 | 49 | 1013.2 |
| 20260502222955 | 14 | 233 | 24.1 | 29.0 | 0.00 | 0.00 | 0.00 | 46 | 1013.2 |
| 20260502222455 | 14 | 233 | 19.3 | 32.2 | 0.00 | 0.00 | 0.00 | 49 | 1013.2 |
| 20260502221955 | 14 | 229 | 17.7 | 27.4 | 0.00 | 0.00 | 0.00 | 50 | 1013.2 |
| 20260502221455 | 14 | 236 | 16.1 | 25.7 | 0.00 | 0.00 | 0.00 | 51 | 1013.2 |
| 20260502220956 | 14 | 275 | 17.7 | 24.1 | 0.00 | 0.00 | 0.00 | 50 | 1013.2 |
| 20260502220456 | 13 | 219 | 19.3 | 29.0 | 0.00 | 0.00 | 0.00 | 44 | 1013.2 |
| 20260502215955 | 14 | 215 | 22.5 | 27.4 | 0.00 | 0.00 | 0.00 | 47 | 1013.5 |
| 20260502215455 | 14 | 225 | 19.3 | 29.0 | 0.00 | 0.00 | 0.00 | 46 | 1013.5 |
| 20260502214956 | 14 | 225 | 25.7 | 29.0 | 0.00 | 0.00 | 0.00 | 50 | 1013.5 |
| 20260502214455 | 14 | 246 | 19.3 | 29.0 | 0.00 | 0.00 | 0.00 | 46 | 1013.5 |
| 20260502213956 | 14 | 218 | 22.5 | 29.0 | 0.00 | 0.00 | 0.00 | 46 | 1013.5 |
| 20260502212956 | 14 | 222 | 25.7 | 29.0 | 0.00 | 0.00 | 0.00 | 47 | 1013.5 |
| 20260502212456 | 14 | 251 | 25.7 | 29.0 | 0.00 | 0.00 | 0.00 | 47 | 1013.9 |
| 20260502211955 | 15 | 239 | 17.7 | 20.9 | 0.00 | 0.00 | 0.00 | 48 | 1013.9 |
| 20260502211455 | 15 | 236 | 14.5 | 17.7 | 0.00 | 0.00 | 0.00 | 42 | 1013.5 |
| 20260502210955 | 14 | 261 | 14.5 | 24.1 | 0.00 | 0.00 | 0.00 | 48 | 1013.9 |
| 20260502210455 | 14 | 240 | 17.7 | 29.0 | 0.00 | 0.00 | 0.00 | 44 | 1013.9 |
| 20260502205956 | 14 | 252 | 25.7 | 29.0 | 0.00 | 0.00 | 0.00 | 45 | 1013.9 |
| 20260502205456 | 14 | 241 | 20.9 | 29.0 | 0.00 | 0.00 | 0.00 | 47 | 1013.9 |
| 20260502204956 | 14 | 252 | 22.5 | 29.0 | 0.00 | 0.00 | 0.00 | 44 | 1014.2 |
| 20260502204455 | 13 | 262 | 20.9 | 27.4 | 0.00 | 0.00 | 0.00 | 44 | 1014.2 |
| 20260502203955 | 15 | 244 | 20.9 | 32.2 | 0.00 | 0.00 | 0.00 | 47 | 1014.2 |
| 20260502203455 | 15 | 253 | 16.1 | 20.9 | 0.00 | 0.00 | 0.00 | 44 | 1014.2 |
| 20260502202955 | 14 | 254 | 17.7 | 32.2 | 0.00 | 0.00 | 0.00 | 45 | 1014.2 |
| 20260502202456 | 15 | 257 | 27.4 | 32.2 | 0.00 | 0.00 | 0.00 | 46 | 1014.6 |
| 20260502201955 | 14 | 251 | 19.3 | 24.1 | 0.00 | 0.00 | 0.00 | 47 | 1014.6 |
| 20260502201455 | 14 | 224 | 9.7 | 25.7 | 0.00 | 0.00 | 0.00 | 44 | 1014.6 |
| 20260502200955 | 14 | 229 | 20.9 | 27.4 | 0.00 | 0.00 | 0.00 | 44 | 1014.6 |
| 20260502200456 | 14 | 274 | 14.5 | 29.0 | 0.00 | 0.00 | 0.00 | 47 | 1014.9 |
| 20260502195955 | 14 | 276 | 24.1 | 29.0 | 0.00 | 0.00 | 0.00 | 45 | 1014.9 |
| 20260502195455 | 14 | 268 | 20.9 | 25.7 | 0.00 | 0.00 | 0.00 | 49 | 1014.9 |
| 20260502194955 | 14 | 227 | 14.5 | 17.7 | 0.00 | 0.00 | 0.00 | 47 | 1014.9 |
| 20260502194455 | 14 | 223 | 20.9 | 27.4 | 0.00 | 0.00 | 0.00 | 45 | 1015.2 |
| 20260502193955 | 14 | 236 | 24.1 | 29.0 | 0.00 | 0.00 | 0.00 | 48 | 1015.2 |
| 20260502193455 | 14 | 228 | 24.1 | 29.0 | 0.00 | 0.00 | 0.00 | 47 | 1015.2 |
| 20260502192956 | 14 | 240 | 17.7 | 27.4 | 0.00 | 0.00 | 0.00 | 44 | 1015.2 |
| 20260502192455 | 14 | 231 | 24.1 | 27.4 | 0.00 | 0.00 | 0.00 | 44 | 1015.2 |
| 20260502191955 | 14 | 246 | 12.9 | 22.5 | 0.00 | 0.00 | 0.00 | 45 | 1015.2 |
| 20260502191456 | 14 | 236 | 14.5 | 25.7 | 0.00 | 0.00 | 0.00 | 42 | 1015.6 |
| 20260502190955 | 13 | 265 | 17.7 | 22.5 | 0.00 | 0.00 | 0.00 | 44 | 1015.6 |
| 20260502190456 | 13 | 242 | 17.7 | 29.0 | 0.00 | 0.00 | 0.00 | 47 | 1015.6 |
| 20260502185955 | 13 | 230 | 17.7 | 29.0 | 0.00 | 0.00 | 0.00 | 43 | 1015.6 |
| 20260502185456 | 13 | 196 | 17.7 | 32.2 | 0.00 | 0.00 | 0.00 | 42 | 1015.6 |
| 20260502184955 | 14 | 260 | 17.7 | 30.6 | 0.00 | 0.00 | 0.00 | 51 | 1015.6 |
| 20260502184455 | 14 | 268 | 14.5 | 20.9 | 0.00 | 0.00 | 0.00 | 48 | 1015.6 |
| 20260502183955 | 13 | 273 | 16.1 | 27.4 | 0.00 | 0.00 | 0.00 | 49 | 1015.9 |
| 20260502183455 | 13 | 240 | 19.3 | 25.7 | 0.00 | 0.00 | 0.00 | 49 | 1015.9 |
| 20260502182955 | 13 | 245 | 14.5 | 25.7 | 0.00 | 0.00 | 0.00 | 50 | 1015.9 |
| 20260502182456 | 13 | 287 | 20.9 | 29.0 | 0.00 | 0.00 | 0.00 | 45 | 1015.9 |
| 20260502181955 | 13 | 246 | 14.5 | 29.0 | 0.00 | 0.00 | 0.00 | 43 | 1015.9 |
| 20260502181455 | 13 | 251 | 16.1 | 29.0 | 0.00 | 0.00 | 0.00 | 43 | 1016.3 |
| 20260502180956 | 13 | 265 | 20.9 | 29.0 | 0.00 | 0.00 | 0.00 | 46 | 1016.3 |
| 20260502180457 | 13 | 247 | 16.1 | 22.5 | 0.00 | 0.00 | 0.00 | 44 | 1016.3 |
| 20260502170455 | 11 | 303 | 16.1 | 25.7 | 0.00 | 0.00 | 0.00 | 47 | 1017.3 |
| 20260502163955 | 12 | 276 | 17.7 | 22.5 | 0.00 | 0.00 | 0.00 | 49 | 1017.3 |
| 20260502163455 | 12 | 264 | 17.7 | 25.7 | 0.00 | 0.00 | 0.00 | 45 | 1017.3 |
| 20260502162956 | 12 | 269 | 16.1 | 19.3 | 0.00 | 0.00 | 0.00 | 47 | 1017.3 |
| 20260502162455 | 12 | 224 | 12.9 | 17.7 | 0.00 | 0.00 | 0.00 | 45 | 1017.3 |
| 20260502161955 | 11 | 295 | 9.7 | 19.3 | 0.00 | 0.00 | 0.00 | 54 | 1017.3 |
| 20260502161455 | 11 | 227 | 14.5 | 19.3 | 0.00 | 0.00 | 0.00 | 52 | 1017.6 |
| 20260502160955 | 11 | 263 | 17.7 | 22.5 | 0.00 | 0.00 | 0.00 | 49 | 1017.6 |
| 20260502160455 | 11 | 190 | 6.4 | 17.7 | 0.00 | 0.00 | 0.00 | 58 | 1017.6 |
| 20260502151955 | 10 | 217 | 11.3 | 17.7 | 0.00 | 0.00 | 0.00 | 58 | 1017.9 |
| 20260502151455 | 10 | 239 | 9.7 | 14.5 | 0.00 | 0.00 | 0.00 | 55 | 1017.9 |
| 20260502150955 | 9 | 171 | 11.3 | 16.1 | 0.00 | 0.00 | 0.00 | 56 | 1017.9 |
| 20260502150455 | 9 | 207 | 14.5 | 17.7 | 0.00 | 0.00 | 0.00 | 58 | 1017.9 |
| 20260502130456 | 5 | 180 | 11.3 | 14.5 | 0.00 | 0.00 | 0.00 | 68 | 1019.0 |
| 20260502123456 | 3 | 165 | 8.0 | 9.7 | 0.00 | 0.00 | 0.00 | 72 | 1019.0 |
| 20260502122955 | 2 | 175 | 8.0 | 9.7 | 0.00 | 0.00 | 0.00 | 72 | 1019.0 |
| 20260502122455 | 2 | 171 | 8.0 | 9.7 | 0.00 | 0.00 | 0.00 | 74 | 1019.0 |
| 20260502121956 | 2 | 169 | 6.4 | 6.4 | 0.00 | 0.00 | 0.00 | 80 | 1019.0 |
| 20260502121455 | 1 | 163 | 4.8 | 6.4 | 0.00 | 0.00 | 0.00 | 81 | 1019.0 |
| 20260502120955 | 1 | 147 | 4.8 | 6.4 | 0.00 | 0.00 | 0.00 | 85 | 1019.0 |
| 20260502120455 | 0 | 180 | 6.4 | 6.4 | 0.00 | 0.00 | 0.00 | 87 | 1019.0 |
| 20260502115455 | 0 | 142 | 0.0 | 0.0 | 0.00 | 0.00 | 0.00 | 97 | 1019.0 |
| 20260502114955 | 0 | 134 | 0.0 | 0.0 | 0.00 | 0.00 | 0.00 | 97 | 1019.0 |
| 20260502114455 | 0 | 129 | 0.0 | 1.6 | 0.00 | 0.00 | 0.00 | 97 | 1019.0 |
| 20260502113957 | -1 | 129 | 0.0 | 0.0 | 0.00 | 0.00 | 0.00 | 96 | 1019.0 |
| 20260502113455 | -1 | 130 | 0.0 | 0.0 | 0.00 | 0.00 | 0.00 | 95 | 1019.0 |
| 20260502112955 | -1 | 140 | 0.0 | 0.0 | 0.00 | 0.00 | 0.00 | 94 | 1019.0 |
| 20260502112455 | -1 | 144 | 0.0 | 3.2 | 0.00 | 0.00 | 0.00 | 94 | 1019.0 |
| 20260502111955 | -1 | 146 | 3.2 | 4.8 | 0.00 | 0.00 | 0.00 | 95 | 1019.0 |
| 20260502111455 | -1 | 167 | 4.8 | 4.8 | 0.00 | 0.00 | 0.00 | 95 | 1019.0 |
| 20260502110955 | -1 | 163 | 4.8 | 4.8 | 0.00 | 0.00 | 0.00 | 96 | 1019.0 |
| 20260502110455 | -1 | 159 | 4.8 | 4.8 | 0.00 | 0.00 | 0.00 | 97 | 1019.0 |
| 20260502105955 | -1 | 166 | 3.2 | 4.8 | 0.00 | 0.00 | 0.00 | 97 | 1019.0 |
| 20260502105456 | 0 | 167 | 3.2 | 3.2 | 0.00 | 0.00 | 0.00 | 96 | 1019.0 |
| 20260502104955 | 0 | 194 | 3.2 | 3.2 | 0.00 | 0.00 | 0.00 | 96 | 1019.0 |
| 20260502104456 | 0 | 178 | 0.0 | 3.2 | 0.00 | 0.00 | 0.00 | 95 | 1019.0 |
| 20260502103955 | 0 | 135 | 0.0 | 3.2 | 0.00 | 0.00 | 0.00 | 95 | 1019.0 |
| 20260502103455 | 0 | 101 | 0.0 | 3.2 | 0.00 | 0.00 | 0.00 | 94 | 1019.0 |
| 20260502102957 | 0 | 80 | 3.2 | 3.2 | 0.00 | 0.00 | 0.00 | 94 | 1019.0 |
| 20260502102455 | 0 | 106 | 0.0 | 0.0 | 0.00 | 0.00 | 0.00 | 94 | 1019.0 |
| 20260502101955 | 0 | 121 | 0.0 | 4.8 | 0.00 | 0.00 | 0.00 | 94 | 1019.0 |
| 20260502101455 | 0 | 154 | 4.8 | 4.8 | 0.00 | 0.00 | 0.00 | 93 | 1019.0 |
| 20260502100956 | 0 | 164 | 4.8 | 4.8 | 0.00 | 0.00 | 0.00 | 95 | 1019.0 |
| 20260502100455 | 0 | 156 | 3.2 | 4.8 | 0.00 | 0.00 | 0.00 | 98 | 1019.0 |
| 20260502091458 | -1 | 119 | 0.0 | 0.0 | 0.00 | 0.00 | 0.00 | 95 | 1019.0 |
| 20260502090955 | -1 | 111 | 0.0 | 0.0 | 0.00 | 0.00 | 0.00 | 95 | 1019.3 |
| 20260502090455 | -1 | 111 | 0.0 | 0.0 | 0.00 | 0.00 | 0.00 | 96 | 1019.3 |
| 20260502071455 | 0 | 210 | 3.2 | 4.8 | 0.00 | 0.00 | 0.00 | 97 | 1019.3 |
| 20260502070955 | 0 | 191 | 3.2 | 3.2 | 0.00 | 0.00 | 0.00 | 95 | 1019.3 |
| 20260502070455 | 0 | 161 | 0.0 | 0.0 | 0.00 | 0.00 | 0.00 | 94 | 1019.3 |
| 20260502065955 | 0 | 148 | 0.0 | 0.0 | 0.00 | 0.00 | 0.00 | 94 | 1019.3 |
| 20260502065456 | 0 | 146 | 1.6 | 3.2 | 0.00 | 0.00 | 0.00 | 94 | 1019.3 |
| 20260502064955 | 0 | 197 | 1.6 | 3.2 | 0.00 | 0.00 | 0.00 | 93 | 1019.3 |
| 20260502064455 | 0 | 147 | 0.0 | 0.0 | 0.00 | 0.00 | 0.00 | 93 | 1019.3 |
| 20260502063955 | 0 | 147 | 0.0 | 0.0 | 0.00 | 0.00 | 0.00 | 94 | 1019.3 |
| 20260502063455 | 0 | 117 | 0.0 | 0.0 | 0.00 | 0.00 | 0.00 | 94 | 1019.6 |
| 20260502062955 | 0 | 116 | 0.0 | 0.0 | 0.00 | 0.00 | 0.00 | 93 | 1019.3 |
| 20260502062455 | 0 | 119 | 0.0 | 0.0 | 0.00 | 0.00 | 0.00 | 93 | 1019.6 |
| 20260502061956 | 0 | 152 | 0.0 | 0.0 | 0.00 | 0.00 | 0.00 | 94 | 1019.6 |
| 20260502061455 | 0 | 173 | 0.0 | 1.6 | 0.00 | 0.00 | 0.00 | 94 | 1019.6 |
| 20260502060955 | 0 | 165 | 1.6 | 4.8 | 0.00 | 0.00 | 0.00 | 94 | 1019.6 |
| 20260502060455 | 0 | 206 | 3.2 | 4.8 | 0.00 | 0.00 | 0.00 | 93 | 1019.6 |
| 20260502055957 | 0 | 195 | 3.2 | 3.2 | 0.00 | 0.00 | 0.00 | 92 | 1019.3 |
| 20260502055455 | 0 | 178 | 1.6 | 3.2 | 0.00 | 0.00 | 0.00 | 89 | 1019.6 |
| 20260502054955 | 0 | 149 | 0.0 | 0.0 | 0.00 | 0.00 | 0.00 | 87 | 1019.3 |
| 20260502054455 | 0 | 149 | 0.0 | 0.0 | 0.00 | 0.00 | 0.00 | 86 | 1019.3 |
| 20260502053957 | 0 | 134 | 0.0 | 0.0 | 0.00 | 0.00 | 0.00 | 87 | 1019.3 |
| 20260502053455 | 0 | 133 | 0.0 | 0.0 | 0.00 | 0.00 | 0.00 | 87 | 1019.3 |
| 20260502052956 | 0 | 125 | 0.0 | 0.0 | 0.00 | 0.00 | 0.00 | 87 | 1019.3 |
| 20260502052456 | 0 | 122 | 0.0 | 3.2 | 0.00 | 0.00 | 0.00 | 88 | 1019.3 |
| 20260502051955 | 0 | 132 | 0.0 | 0.0 | 0.00 | 0.00 | 0.00 | 87 | 1019.3 |